User: anonymous   Login
Location: ????????
(55.4717°N, 39.1821°E)
Time: 09:56:52
(UTC+00:00)
Language:

CZ-2C R/B - Orbit

View from above orbital plane
View from above orbital plane
View from above satellite
View from above satellite

Ground track
Ground track

The orbit data is extracted from the following two-line orbital elements,

1 36089U 09061B   24164.86852435  .00000679  00000-0  17623-3 0  9994
2 36089  98.3584 130.7673 0080762 128.4628 232.3849 14.51018043771537
Epoch (UTC): 12 June 2024 20:50:40
Eccentricity: 0.0080762
inclination: 98.3584°
perigee height: 665 km
apogee height: 779 km
right ascension of ascending node: 130.7673°
argument of perigee: 128.4628°
revolutions per day: 14.51018043
mean anomaly at epoch: 232.3849°
orbit number at epoch: 77153

The dashed part of the orbit path shows where the satellite is in the earth's shadow,  

DLR